Wind_Speed
22 23 23 24 24 25 26 27 27 27 28 28 28 29 29 30 31 32 32 33 33 34 34 34 35 36 36 37 37 37 37 37 38 38 37 37 38 38 38 38 39 39 39 40
23 23 23 24 25 26 26 27 27 27 28 29 29 29 30 30 32 32 33 33 33 34 34 34 35 35 36 36 36 36 36 36 37 38 38 38 38 39 39 39 39 40 40 41
22 23 24 25 26 26 27 27 27 28 29 30 30 30 31 31 32 33 33 34 34 34 34 34 34 35 35 35 36 37 37 36 37 38 38 39 39 39 39 39 39 40 41 42
22 23 24 25 26 27 27 27 28 29 30 30 31 32 30 31 32 32 33 33 34 34 34 34 34 34 35 36 36 37 37 37 38 38 38 39 39 39 40 40 40 41 42 43
22 23 24 25 25 27 27 27 28 29 30 30 30 32 31 30 30 31 31 32 33 34 35 34 34 35 35 35 36 37 37 37 38 39 38 39 40 40 40 41 42 43 43 43
23 24 24 25 25 26 27 27 28 28 29 30 29 31 31 29 29 29 30 31 32 32 33 34 34 35 35 35 36 37 37 38 38 39 40 40 41 41 41 42 42 43 44 44
23 23 24 25 25 25 25 26 28 28 29 29 28 30 29 28 28 28 29 30 31 32 32 33 34 34 35 36 36 37 37 38 38 39 40 41 42 42 42 43 43 43 44 44
23 23 23 24 24 25 25 26 27 29 30 29 29 30 28 27 28 28 29 30 30 31 32 33 34 34 34 35 36 36 37 38 38 39 40 41 42 43 43 43 42 42 42 42
23 24 24 24 24 24 25 26 27 29 29 29 29 29 29 28 28 29 29 30 30 31 32 33 33 34 34 34 35 37 37 38 38 39 40 41 41 42 41 41 41 41 41 41
23 25 24 24 25 24 25 26 26 27 29 30 29 28 27 28 29 29 29 30 30 31 32 32 33 33 34 35 35 36 37 38 39 39 39 40 42 42 42 41 40 40 40 40
25 26 25 25 25 25 24 25 26 28 29 30 31 29 28 28 29 29 29 29 30 30 31 32 32 33 34 34 35 36 37 38 39 39 40 40 41 41 41 41 40 40 40 40
26 26 25 25 25 25 26 25 26 27 29 30 31 30 30 30 30 30 30 30 31 30 31 31 32 33 34 34 35 35 36 37 39 39 40 39 39 39 39 39 40 40 40 39
25 26 26 26 26 26 26 26 27 28 29 30 31 30 30 31 30 30 30 30 31 31 31 31 32 32 33 34 34 34 35 36 37 37 38 38 37 37 37 37 39 39 39 38
26 26 27 27 27 27 27 27 27 29 30 30 30 29 29 30 30 30 30 30 30 30 30 31 31 32 32 32 33 34 34 34 35 35 35 35 35 35 35 36 36 37 37 38
28 29 28 28 28 28 28 28 29 29 30 30 30 30 29 30 30 30 30 30 30 30 30 30 30 31 31 31 32 33 33 34 34 34 34 34 34 34 34 35 35 36 36 35
29 29 29 28 28 28 28 29 29 30 31 32 32 31 31 31 31 30 30 30 30 30 30 30 30 30 31 31 32 33 33 33 34 34 34 34 34 34 33 34 34 34 34 34
27 27 28 27 28 28 28 28 29 30 31 31 32 31 31 31 31 30 30 30 30 30 30 31 31 31 31 31 31 32 32 32 32 32 33 33 33 33 33 33 32 32 32 32
27 28 29 29 28 29 28 27 27 28 29 30 31 31 31 31 30 30 30 29 29 30 30 30 30 31 31 31 31 31 31 30 30 31 31 31 31 31 31 30 30 30 30 29
26 27 28 29 30 30 27 26 27 27 27 28 30 30 30 30 30 29 29 29 29 29 30 30 30 31 31 31 30 30 29 29 29 29 29 29 29 29 28 28 28 28 28 28
24 25 26 28 29 29 26 26 27 28 28 27 28 28 29 30 29 28 28 28 28 28 29 29 30 30 30 30 29 28 27 28 27 27 28 28 28 27 27 26 26 26 27 27
24 24 25 26 27 27 25 25 25 26 27 27 27 28 28 28 28 27 27 27 27 27 28 28 28 28 28 28 27 26 26 26 25 25 25 26 26 26 26 26 25 26 25 25
24 25 25 26 27 26 25 25 25 26 26 27 27 26 26 26 26 26 25 26 26 26 27 27 27 26 25 24 24 24 24 23 23 23 24 24 24 24 24 23 24 24 24 24
23 23 24 25 25 26 26 26 26 26 26 25 25 25 24 24 24 24 24 25 25 25 25 24 24 23 23 22 22 22 22 22 22 22 22 23 22 22 22 22 22 22 22 22
22 22 23 24 24 25 25 25 26 25 25 24 24 25 25 24 23 22 22 23 23 23 23 22 22 21 21 21 20 20 21 21 21 22 21 21 21 21 21 21 21 21 21 21
21 22 22 23 24 24 24 25 24 24 23 23 23 24 24 23 21 21 22 22 22 22 22 21 21 21 21 21 21 20 20 21 21 21 20 20 20 20 21 21 21 21 20 20
21 22 22 22 23 23 22 23 23 23 23 23 23 24 24 23 21 21 21 21 21 21 21 21 21 21 21 21 21 21 20 21 21 20 20 20 20 20 21 21 21 20 20 19
Wind_Direction
257 258 261 264 266 267 268 269 270 270 269 269 269 269 269 269 269 269 270 270 270 270 270 269 269 269 268 269 270 270 270 270 269 268 269 269 270 271 271 272 273 274 274 274
259 261 263 264 265 267 268 269 270 270 269 269 270 270 270 270 271 271 272 272 271 271 271 270 269 269 269 269 269 269 270 270 269 268 268 268 270 271 271 272 274 275 275 275
261 263 264 265 266 268 269 270 271 272 271 271 272 272 272 272 272 272 272 272 272 271 271 270 270 269 269 269 269 270 270 271 270 268 267 268 269 271 272 274 275 276 276 275
263 264 265 266 267 270 271 272 273 273 274 274 275 274 273 275 274 273 272 272 271 271 270 270 271 270 270 270 271 271 271 271 271 270 269 269 269 271 272 274 275 276 277 277
266 266 266 267 269 271 272 273 274 274 275 276 276 277 276 277 275 274 272 272 271 271 271 271 271 271 271 271 271 272 271 271 272 271 270 270 271 272 272 273 275 276 277 277
267 268 268 269 270 272 273 274 275 275 276 277 278 279 279 279 278 275 273 272 271 271 272 273 272 272 272 271 270 271 271 272 273 272 271 271 272 273 273 274 276 276 277 278
270 269 270 270 271 273 274 275 276 276 276 278 280 279 280 281 278 276 274 273 272 272 273 273 273 273 272 270 270 271 271 272 273 273 273 273 273 273 274 275 275 276 276 277
273 272 272 272 273 274 274 275 275 278 279 280 280 280 281 281 279 277 274 274 274 274 274 274 274 274 274 272 271 271 271 271 273 274 275 275 275 275 275 274 274 275 276 277
274 274 274 274 275 275 275 275 276 278 280 282 281 281 280 281 280 279 278 277 276 276 277 277 277 276 275 273 272 271 272 272 273 275 276 276 275 275 275 275 275 275 276 276
274 274 274 276 277 277 277 277 276 277 280 282 283 283 284 285 283 281 280 280 279 279 279 279 279 278 277 275 274 273 273 273 273 274 276 277 277 276 275 275 275 275 275 276
274 275 275 275 278 279 278 277 278 278 279 281 284 285 286 287 287 285 283 283 282 281 279 279 279 279 278 277 275 274 274 274 273 274 276 278 277 276 276 276 276 275 275 276
275 274 273 274 276 275 275 276 277 277 279 281 284 285 286 287 287 287 285 283 282 281 280 280 280 280 279 278 277 276 276 275 275 275 277 277 277 277 277 277 277 277 276 275
274 274 274 274 274 274 275 275 276 276 278 280 284 286 287 287 287 286 286 285 283 282 282 282 281 281 280 280 279 279 278 277 277 277 277 278 279 279 279 278 278 277 276 276
272 273 275 277 278 277 276 275 275 276 278 280 283 286 287 286 286 285 285 284 283 283 284 284 283 283 283 282 281 280 280 279 278 278 278 279 280 281 281 280 279 278 277 276
272 273 274 275 276 276 275 273 273 275 278 279 282 284 286 287 287 286 286 285 284 284 285 286 286 285 284 283 283 282 281 280 278 277 278 279 280 281 282 281 279 278 277 276
272 272 272 273 275 275 274 274 274 275 277 279 281 282 284 285 286 286 287 287 286 284 285 286 286 286 285 284 284 284 283 281 279 278 278 279 279 280 281 281 279 277 275 275
271 272 273 273 274 275 274 275 275 275 277 279 281 283 284 283 284 285 286 287 286 284 285 286 287 287 288 287 286 286 285 283 280 278 277 278 279 280 281 281 280 277 275 275
271 271 272 273 274 275 279 279 278 279 279 280 282 284 285 285 284 284 285 285 286 285 285 285 286 287 289 289 288 287 286 284 282 280 279 279 280 281 281 280 280 278 277 276
272 271 273 275 276 277 278 280 281 282 283 284 285 285 285 286 284 284 285 285 285 286 286 286 287 288 290 290 291 290 287 285 283 280 279 279 280 281 282 281 280 279 278 276
274 273 273 275 277 278 279 281 283 284 285 287 288 287 287 286 285 285 285 286 287 288 289 289 289 290 291 291 291 290 289 288 285 281 280 280 280 280 281 281 281 280 279 278
275 274 273 274 275 277 280 281 283 284 287 289 290 290 289 289 287 286 286 287 289 290 291 292 293 293 292 291 290 290 289 289 288 285 283 282 281 280 280 281 280 280 279 278
279 278 276 276 276 278 280 281 283 286 288 290 290 290 290 289 288 287 288 289 290 291 293 294 295 295 294 293 292 291 290 290 290 289 286 285 282 282 283 282 281 279 277 278
278 279 279 278 279 279 279 280 283 286 288 290 290 291 292 290 289 289 290 290 290 292 295 296 297 297 297 296 294 292 291 291 291 291 289 289 286 285 284 282 280 279 277 276
278 278 280 281 280 278 278 279 282 284 286 288 289 290 291 290 290 290 291 293 293 295 296 298 299 300 299 300 297 294 294 293 293 292 291 291 291 289 286 283 281 280 278 276
280 278 281 283 282 281 280 280 282 283 283 284 286 288 291 292 291 290 292 294 295 296 298 298 299 300 299 299 299 298 296 293 292 291 290 291 292 291 289 287 285 283 281 278
280 279 281 285 284 283 282 281 282 282 281 282 284 287 291 292 291 291 292 293 295 296 298 299 299 299 299 298 298 297 296 294 291 289 289 291 291 291 290 289 287 285 282 281
Height
5721 5723 5723 5724 5724 5724 5724 5724 5724 5725 5724 5724 5724 5725 5725 5724 5724 5723 5723 5722 5722 5721 5721 5720 5720 5719 5719 5718 5718 5717 5717 5716 5716 5716 5716 5715 5714 5713 5712 5711 5710 5709 5708 5706
5716 5717 5717 5716 5716 5716 5717 5717 5717 5717 5716 5716 5716 5716 5716 5716 5715 5715 5714 5713 5713 5712 5712 5712 5711 5710 5710 5709 5708 5708 5707 5706 5706 5705 5705 5705 5704 5703 5702 5701 5700 5698 5697 5695
5710 5711 5710 5710 5710 5710 5710 5710 5710 5709 5708 5708 5707 5708 5709 5708 5707 5706 5705 5704 5704 5703 5703 5702 5702 5701 5700 5700 5699 5698 5697 5697 5696 5695 5695 5694 5694 5693 5692 5690 5689 5687 5685 5684
5703 5703 5703 5703 5703 5703 5703 5702 5702 5701 5700 5700 5700 5699 5701 5700 5699 5697 5696 5695 5694 5694 5693 5692 5692 5692 5691 5690 5689 5688 5687 5686 5685 5684 5684 5684 5683 5682 5681 5680 5678 5676 5674 5672
5697 5697 5697 5697 5697 5696 5695 5695 5694 5693 5692 5692 5691 5690 5693 5691 5690 5689 5687 5686 5685 5684 5683 5683 5682 5682 5681 5680 5680 5679 5677 5676 5675 5674 5673 5673 5672 5671 5670 5668 5666 5664 5662 5660
5690 5690 5690 5690 5689 5689 5688 5687 5686 5685 5684 5684 5684 5681 5683 5683 5681 5680 5678 5677 5676 5675 5674 5673 5672 5672 5671 5670 5670 5669 5667 5666 5665 5664 5663 5662 5661 5659 5658 5656 5654 5652 5650 5648
5683 5683 5683 5682 5682 5681 5681 5680 5679 5677 5676 5676 5676 5673 5675 5674 5672 5670 5669 5668 5667 5666 5665 5664 5663 5662 5661 5660 5659 5658 5657 5656 5655 5653 5652 5651 5649 5648 5646 5644 5642 5641 5638 5636
5676 5677 5676 5675 5675 5674 5673 5673 5672 5670 5668 5668 5667 5666 5668 5666 5664 5662 5661 5660 5658 5657 5656 5654 5653 5651 5650 5649 5648 5648 5646 5645 5644 5642 5641 5639 5638 5636 5634 5632 5630 5628 5626 5624
5669 5669 5669 5668 5667 5667 5665 5665 5664 5662 5660 5659 5659 5658 5659 5658 5656 5654 5653 5651 5650 5648 5647 5645 5643 5641 5640 5639 5638 5637 5636 5634 5633 5631 5630 5628 5626 5625 5623 5621 5619 5617 5615 5613
5662 5661 5662 5661 5660 5659 5658 5657 5656 5654 5652 5650 5651 5651 5651 5649 5647 5646 5644 5642 5641 5639 5637 5635 5634 5632 5630 5629 5627 5626 5625 5623 5622 5621 5619 5617 5615 5613 5611 5609 5607 5605 5603 5601
5654 5654 5654 5654 5653 5652 5651 5650 5648 5647 5645 5643 5642 5645 5643 5640 5638 5637 5635 5633 5632 5630 5628 5626 5624 5622 5620 5619 5617 5616 5614 5612 5611 5610 5608 5606 5604 5601 5599 5598 5596 5594 5592 5590
5647 5646 5646 5646 5646 5644 5643 5643 5641 5641 5639 5637 5635 5638 5635 5632 5630 5628 5627 5625 5622 5620 5619 5617 5615 5612 5610 5609 5607 5605 5603 5601 5600 5598 5596 5594 5592 5590 5588 5586 5585 5583 5581 5579
5639 5639 5638 5638 5640 5637 5636 5635 5634 5632 5631 5629 5628 5631 5627 5624 5622 5620 5618 5616 5613 5611 5610 5608 5605 5603 5601 5599 5597 5595 5593 5591 5589 5587 5585 5583 5581 5579 5577 5576 5574 5572 5570 5569
5631 5631 5631 5631 5630 5629 5628 5628 5626 5625 5623 5621 5621 5620 5619 5616 5614 5612 5610 5607 5605 5603 5601 5599 5596 5594 5592 5590 5588 5586 5583 5581 5579 5577 5575 5573 5571 5569 5567 5565 5563 5562 5560 5558
5623 5623 5623 5622 5621 5620 5620 5619 5618 5617 5615 5614 5613 5611 5610 5607 5605 5603 5601 5599 5597 5595 5593 5590 5588 5586 5583 5581 5579 5576 5574 5571 5569 5567 5565 5563 5561 5559 5557 5555 5553 5552 5550 5548
5615 5615 5614 5614 5613 5612 5611 5611 5610 5609 5607 5606 5604 5604 5602 5599 5597 5595 5593 5591 5589 5586 5584 5582 5580 5577 5575 5572 5569 5567 5564 5562 5559 5557 5555 5553 5551 5549 5547 5545 5544 5542 5540 5539
5606 5606 5605 5605 5604 5603 5603 5604 5602 5601 5599 5598 5596 5596 5593 5591 5589 5587 5585 5583 5580 5578 5576 5574 5571 5568 5566 5563 5560 5557 5554 5552 5549 5547 5545 5543 5541 5539 5537 5536 5534 5532 5531 5530
5599 5598 5596 5596 5596 5594 5598 5595 5594 5592 5591 5589 5587 5586 5584 5582 5580 5578 5576 5574 5572 5570 5568 5565 5562 5560 5557 5554 5551 5548 5545 5543 5540 5538 5536 5534 5532 5530 5528 5527 5525 5524 5522 5521
5591 5590 5589 5588 5586 5586 5589 5587 5585 5584 5583 5581 5579 5577 5576 5574 5572 5570 5568 5566 5564 5562 5559 5557 5554 5551 5548 5545 5542 5539 5537 5534 5532 5530 5528 5526 5524 5522 5520 5518 5517 5515 5514 5513
5583 5582 5582 5580 5578 5578 5582 5580 5577 5576 5575 5574 5571 5569 5567 5565 5564 5564 5560 5558 5556 5553 5551 5548 5546 5543 5540 5537 5534 5531 5529 5526 5524 5522 5520 5518 5516 5514 5512 5510 5509 5507 5506 5505
5576 5575 5574 5572 5571 5571 5573 5571 5570 5570 5569 5566 5563 5561 5559 5557 5556 5555 5552 5550 5548 5545 5543 5540 5537 5534 5531 5529 5526 5523 5521 5519 5517 5514 5512 5510 5508 5506 5505 5503 5502 5500 5498 5497
5569 5568 5567 5565 5564 5567 5565 5563 5563 5562 5560 5557 5555 5553 5551 5549 5548 5546 5544 5542 5540 5538 5536 5533 5529 5526 5524 5521 5518 5516 5514 5512 5510 5508 5506 5504 5502 5500 5498 5496 5494 5493 5491 5490
5562 5562 5560 5559 5560 5559 5557 5555 5554 5553 5552 5550 5548 5546 5544 5543 5541 5539 5537 5535 5533 5531 5529 5525 5522 5520 5517 5514 5512 5510 5508 5506 5504 5502 5499 5497 5495 5493 5491 5489 5488 5486 5485 5483
5556 5555 5553 5552 5552 5551 5549 5548 5547 5545 5544 5542 5541 5539 5537 5536 5534 5532 5531 5529 5527 5525 5522 5519 5517 5514 5511 5509 5506 5504 5502 5500 5498 5496 5494 5492 5489 5487 5485 5483 5482 5480 5478 5477
5549 5548 5546 5545 5544 5543 5542 5540 5540 5538 5537 5535 5534 5532 5531 5529 5527 5526 5524 5522 5520 5518 5516 5513 5511 5509 5506 5504 5501 5499 5496 5494 5492 5490 5488 5486 5484 5482 5480 5478 5476 5474 5472 5471
5543 5541 5539 5539 5538 5536 5536 5534 5533 5531 5530 5529 5527 5526 5524 5523 5521 5519 5518 5516 5514 5512 5510 5508 5505 5503 5501 5498 5496 5493 5491 5489 5487 5485 5483 5481 5478 5476 5474 5472 5470 5468 5466 5465